TimeCET,TemperatureF,Dew PointF,Humidity,Sea Level PressureIn,VisibilityMPH,Wind Direction,Wind SpeedMPH,Gust SpeedMPH,PrecipitationIn,Events,Conditions,WindDirDegrees,DateUTC
12:55 AM,55.4,51.8,88,29.65,6.2,NW,18.4,-,N/A,,Mostly Cloudy,310,2012-10-30 23:55:00
1:00 AM,55,51,81,29.68,12,NW,18.4,,,,Overcast,310,2012-10-31 00:00:00
1:55 AM,57.2,51.8,82,29.65,6.2,NW,11.5,-,N/A,,Partly Cloudy,320,2012-10-31 00:55:00
2:55 AM,57.2,51.8,82,29.62,6.2,NW,11.5,-,N/A,,Partly Cloudy,310,2012-10-31 01:55:00
3:55 AM,57.2,53.6,88,29.59,-9999.0,NW,10.4,-,N/A,,Clear,320,2012-10-31 02:55:00
4:55 AM,57.2,53.6,88,29.56,6.2,WNW,10.4,-,N/A,,Partly Cloudy,300,2012-10-31 03:55:00
5:55 AM,59.0,53.6,82,29.50,6.2,NW,8.1,-,N/A,,Partly Cloudy,320,2012-10-31 04:55:00
6:55 AM,57.2,53.6,88,29.50,6.2,WNW,9.2,-,N/A,,Scattered Clouds,300,2012-10-31 05:55:00
7:00 AM,58,54,83,29.51,12,WNW,9.2,,,,Overcast,300,2012-10-31 06:00:00
7:55 AM,59.0,55.4,88,29.47,6.2,NW,8.1,-,N/A,,Partly Cloudy,310,2012-10-31 06:55:00
8:55 AM,60.8,57.2,88,29.44,6.2,SSW,4.6,-,N/A,Rain,Light Rain,210,2012-10-31 07:55:00
9:55 AM,60.8,60.8,100,29.44,6.2,SSW,11.5,-,N/A,Rain,Light Rain,200,2012-10-31 08:55:00
10:55 AM,59.0,57.2,94,29.42,5.0,SW,18.4,29.9,N/A,Rain,Light Rain,220,2012-10-31 09:55:00
11:55 AM,59.0,55.4,88,29.39,5.0,SSW,20.7,33.4,N/A,Rain,Light Rain,210,2012-10-31 10:55:00
12:55 PM,59.0,55.4,88,29.36,5.0,SSW,23.0,35.7,N/A,Rain,Light Rain,210,2012-10-31 11:55:00
1:00 PM,60,56,82,29.37,2,SSW,23.0,,,Rain,Light Rain,210,2012-10-31 12:00:00
1:55 PM,60.8,57.2,88,29.33,6.2,SW,17.3,-,N/A,Rain,Light Rain,220,2012-10-31 12:55:00
2:55 PM,60.8,57.2,88,29.33,6.2,SSW,18.4,31.1,N/A,,Scattered Clouds,210,2012-10-31 13:55:00
3:55 PM,60.8,57.2,88,29.30,6.2,SW,13.8,-,N/A,,Scattered Clouds,220,2012-10-31 14:55:00
4:55 PM,60.8,57.2,88,29.27,6.2,SW,18.4,32.2,N/A,Rain,Light Rain,220,2012-10-31 15:55:00
5:55 PM,62.6,55.4,77,29.27,6.2,SW,21.9,34.5,N/A,,Scattered Clouds,230,2012-10-31 16:55:00
6:55 PM,62.6,50.0,63,29.27,6.2,WSW,28.8,44.9,N/A,,Scattered Clouds,250,2012-10-31 17:55:00
7:00 PM,62,49,53,29.26,12,WSW,28.8,,,,Partly Cloudy,250,2012-10-31 18:00:00
7:55 PM,60.8,50.0,68,29.27,6.2,WSW,27.6,41.4,N/A,,Scattered Clouds,240,2012-10-31 18:55:00
8:55 PM,60.8,51.8,72,29.27,6.2,SW,26.5,43.7,N/A,,Scattered Clouds,230,2012-10-31 19:55:00
9:55 PM,62.6,50.0,63,29.27,6.2,West,19.6,32.2,N/A,,Scattered Clouds,280,2012-10-31 20:55:00
10:55 PM,62.6,50.0,63,29.27,6.2,WSW,13.8,36.8,N/A,,Scattered Clouds,240,2012-10-31 21:55:00
11:55 PM,62.6,50.0,63,29.27,6.2,SW,17.3,34.5,N/A,,Scattered Clouds,220,2012-10-31 22:55:00